Retour au catalogue

STARLINK-6041

ActifCommunicationsVLEO
NORAD 56478·PAYLOAD·🇺🇸 United States

Lancé May 10, 2023 depuis Vandenberg Space Force Base

Loading…

Prochains Passages (prochaines 24 heures)

TLE

FraisSource: CelesTrak SupGP

Époque: Sep 15, 2026, 02:01 UTC

1 56478C 23064AG  26258.08451389  .00503730  00000+0  39492-1 0  2589
2 56478  70.0004   6.9123 0003185 270.4839 288.5177 15.00638510    12

Suivez STARLINK-6041 en temps réel avec AllMySat

Download on the App Store